Time,TemperatureF,DewpointF,PressureIn,WindDirection,WindDirectionDegrees,WindSpeedMPH,WindSpeedGustMPH,Humidity,HourlyPrecipIn,Conditions,Clouds,dailyrainin,SoftwareType,DateUTC
2013-07-03 00:00:00,66.1,0.0,29.91,SSW,200,6.0,17.0,0,0.00,,,0.00,Weather View 32 v70,2013-07-03 07:00:00,
2013-07-03 00:06:00,66.0,0.0,29.91,North,359,3.0,17.0,0,0.00,,,0.00,Weather View 32 v70,2013-07-03 07:06:00,
2013-07-03 00:11:00,66.1,0.0,29.91,WSW,245,6.0,17.0,0,0.00,,,0.00,Weather View 32 v70,2013-07-03 07:11:00,
2013-07-03 00:16:00,65.5,0.0,29.91,SW,236,8.0,17.0,0,0.00,,,0.00,Weather View 32 v70,2013-07-03 07:16:00,
2013-07-03 00:21:00,65.9,0.0,29.91,West,262,3.0,17.0,0,0.00,,,0.00,Weather View 32 v70,2013-07-03 07:21:00,
2013-07-03 00:26:00,66.1,0.0,29.91,West,264,4.0,17.0,0,0.00,,,0.00,Weather View 32 v70,2013-07-03 07:26:00,
2013-07-03 00:31:00,66.0,0.0,29.91,WSW,250,6.0,17.0,0,0.00,,,0.00,Weather View 32 v70,2013-07-03 07:31:00,
2013-07-03 00:36:00,66.1,0.0,29.91,West,259,7.0,17.0,0,0.00,,,0.00,Weather View 32 v70,2013-07-03 07:36:00,
2013-07-03 00:38:00,66.1,0.0,29.91,SSW,200,5.0,17.0,0,0.00,,,0.00,Weather View 32 v70,2013-07-03 07:38:00,
2013-07-03 00:43:00,66.8,0.0,29.91,WSW,248,2.0,17.0,0,0.00,,,0.00,Weather View 32 v70,2013-07-03 07:43:00,
2013-07-03 00:48:00,66.8,0.0,29.90,West,278,5.0,17.0,0,0.00,,,0.00,Weather View 32 v70,2013-07-03 07:48:00,
2013-07-03 00:51:00,66.9,0.0,29.90,WSW,242,5.0,17.0,0,0.00,,,0.00,Weather View 32 v70,2013-07-03 07:51:00,
2013-07-03 00:56:00,67.0,0.0,29.90,WSW,248,3.0,17.0,0,0.00,,,0.00,Weather View 32 v70,2013-07-03 07:56:00,
2013-07-03 01:01:00,67.4,0.0,29.90,SW,226,3.0,16.0,0,0.00,,,0.00,Weather View 32 v70,2013-07-03 08:01:00,
2013-07-03 01:06:00,67.3,0.0,29.90,West,270,4.0,15.0,0,0.00,,,0.00,Weather View 32 v70,2013-07-03 08:06:00,
2013-07-03 01:10:00,67.7,0.0,29.90,West,278,2.0,15.0,0,0.00,,,0.00,Weather View 32 v70,2013-07-03 08:10:00,
2013-07-03 01:16:00,68.1,0.0,29.90,WSW,253,4.0,15.0,0,0.00,,,0.00,Weather View 32 v70,2013-07-03 08:16:00,
2013-07-03 01:18:00,68.2,0.0,29.90,SW,233,2.0,14.0,0,0.00,,,0.00,Weather View 32 v70,2013-07-03 08:18:00,
2013-07-03 01:23:00,68.4,0.0,29.90,SW,228,1.0,12.0,0,0.00,,,0.00,Weather View 32 v70,2013-07-03 08:23:00,
2013-07-03 01:28:00,67.8,0.0,29.90,West,260,1.0,11.0,0,0.00,,,0.00,Weather View 32 v70,2013-07-03 08:28:00,
2013-07-03 01:33:00,68.0,0.0,29.90,SW,218,2.0,10.0,0,0.00,,,0.00,Weather View 32 v70,2013-07-03 08:33:00,
2013-07-03 01:39:00,68.0,0.0,29.90,SSW,194,1.0,9.0,0,0.00,,,0.00,Weather View 32 v70,2013-07-03 08:39:00,
2013-07-03 01:44:00,67.7,0.0,29.90,SW,225,3.0,9.0,0,0.00,,,0.00,Weather View 32 v70,2013-07-03 08:44:00,
2013-07-03 01:45:00,67.7,0.0,29.90,WSW,245,2.0,9.0,0,0.00,,,0.00,Weather View 32 v70,2013-07-03 08:45:00,
2013-07-03 01:50:00,68.0,0.0,29.90,WSW,253,3.0,9.0,0,0.00,,,0.00,Weather View 32 v70,2013-07-03 08:50:00,
2013-07-03 01:54:00,68.0,0.0,29.90,SW,225,3.0,9.0,0,0.00,,,0.00,Weather View 32 v70,2013-07-03 08:54:00,
2013-07-03 01:56:00,68.0,0.0,29.90,SW,222,2.0,9.0,0,0.00,,,0.00,Weather View 32 v70,2013-07-03 08:56:00,
2013-07-03 02:01:00,68.2,0.0,29.90,SW,221,1.0,9.0,0,0.00,,,0.00,Weather View 32 v70,2013-07-03 09:01:00,
2013-07-03 02:06:00,68.0,0.0,29.90,WSW,246,0.0,9.0,0,0.00,,,0.00,Weather View 32 v70,2013-07-03 09:06:00,
2013-07-03 02:11:00,68.3,0.0,29.90,WSW,257,2.0,9.0,0,0.00,,,0.00,Weather View 32 v70,2013-07-03 09:11:00,
2013-07-03 02:16:00,68.2,0.0,29.90,WNW,288,5.0,8.0,0,0.00,,,0.00,Weather View 32 v70,2013-07-03 09:16:00,
2013-07-03 02:22:00,68.4,0.0,29.90,WSW,242,5.0,8.0,0,0.00,,,0.00,Weather View 32 v70,2013-07-03 09:22:00,
2013-07-03 02:27:00,68.4,0.0,29.90,West,263,7.0,8.0,0,0.00,,,0.00,Weather View 32 v70,2013-07-03 09:27:00,
2013-07-03 02:32:00,68.5,0.0,29.90,WSW,243,3.0,9.0,0,0.00,,,0.00,Weather View 32 v70,2013-07-03 09:32:00,
2013-07-03 02:37:00,68.6,0.0,29.90,WSW,246,3.0,9.0,0,0.00,,,0.00,Weather View 32 v70,2013-07-03 09:37:00,
2013-07-03 02:41:00,68.6,0.0,29.90,SW,236,2.0,9.0,0,0.00,,,0.00,Weather View 32 v70,2013-07-03 09:41:00,
2013-07-03 02:46:00,68.7,0.0,29.90,SSW,210,5.0,9.0,0,0.00,,,0.00,Weather View 32 v70,2013-07-03 09:46:00,
2013-07-03 02:49:00,68.6,0.0,29.89,West,270,0.0,9.0,0,0.00,,,0.00,Weather View 32 v70,2013-07-03 09:49:00,
2013-07-03 02:50:00,68.5,0.0,29.89,WSW,242,2.0,9.0,0,0.00,,,0.00,Weather View 32 v70,2013-07-03 09:50:00,
2013-07-03 02:55:00,68.6,0.0,29.89,WSW,255,3.0,9.0,0,0.00,,,0.00,Weather View 32 v70,2013-07-03 09:55:00,
2013-07-03 03:00:00,68.5,0.0,29.89,WNW,283,2.0,9.0,0,0.00,,,0.00,Weather View 32 v70,2013-07-03 10:00:00,
2013-07-03 03:04:00,68.4,0.0,29.89,WSW,256,3.0,9.0,0,0.00,,,0.00,Weather View 32 v70,2013-07-03 10:04:00,
2013-07-03 03:05:00,68.4,0.0,29.89,WSW,252,4.0,9.0,0,0.00,,,0.00,Weather View 32 v70,2013-07-03 10:05:00,
2013-07-03 03:10:00,68.6,0.0,29.89,WSW,245,1.0,9.0,0,0.00,,,0.00,Weather View 32 v70,2013-07-03 10:10:00,
2013-07-03 03:15:00,68.7,0.0,29.89,WSW,255,1.0,9.0,0,0.00,,,0.00,Weather View 32 v70,2013-07-03 10:15:00,
2013-07-03 03:22:00,68.5,0.0,29.89,WSW,239,3.0,9.0,0,0.00,,,0.00,Weather View 32 v70,2013-07-03 10:22:00,
2013-07-03 03:27:00,68.5,0.0,29.89,SW,232,1.0,9.0,0,0.00,,,0.00,Weather View 32 v70,2013-07-03 10:27:00,
2013-07-03 03:31:00,68.5,0.0,29.89,South,184,0.0,7.0,0,0.00,,,0.00,Weather View 32 v70,2013-07-03 10:31:00,
2013-07-03 03:36:00,68.7,0.0,29.89,West,264,2.0,7.0,0,0.00,,,0.00,Weather View 32 v70,2013-07-03 10:36:00,
2013-07-03 03:42:00,68.5,0.0,29.89,WSW,255,2.0,7.0,0,0.00,,,0.00,Weather View 32 v70,2013-07-03 10:42:00,
2013-07-03 03:47:00,68.5,0.0,29.89,WSW,240,1.0,7.0,0,0.00,,,0.00,Weather View 32 v70,2013-07-03 10:47:00,
2013-07-03 03:49:00,68.5,0.0,29.89,SW,232,2.0,7.0,0,0.00,,,0.00,Weather View 32 v70,2013-07-03 10:49:00,
2013-07-03 03:54:00,68.3,0.0,29.89,SW,232,3.0,7.0,0,0.00,,,0.00,Weather View 32 v70,2013-07-03 10:54:00,
2013-07-03 03:55:00,68.3,0.0,29.89,WSW,248,3.0,7.0,0,0.00,,,0.00,Weather View 32 v70,2013-07-03 10:55:00,
2013-07-03 03:57:00,68.3,0.0,29.89,SW,232,3.0,7.0,0,0.00,,,0.00,Weather View 32 v70,2013-07-03 10:57:00,
2013-07-03 04:02:00,68.2,0.0,29.89,West,262,3.0,7.0,0,0.00,,,0.00,Weather View 32 v70,2013-07-03 11:02:00,
2013-07-03 04:07:00,68.2,0.0,29.88,SSW,204,1.0,7.0,0,0.00,,,0.00,Weather View 32 v70,2013-07-03 11:07:00,
2013-07-03 04:08:00,68.2,0.0,29.88,SW,222,1.0,7.0,0,0.00,,,0.00,Weather View 32 v70,2013-07-03 11:08:00,
2013-07-03 04:11:00,68.1,0.0,29.88,WSW,240,0.0,7.0,0,0.00,,,0.00,Weather View 32 v70,2013-07-03 11:11:00,
2013-07-03 04:17:00,68.1,0.0,29.88,SSW,212,1.0,7.0,0,0.00,,,0.00,Weather View 32 v70,2013-07-03 11:17:00,
2013-07-03 04:21:00,68.2,0.0,29.88,SW,228,1.0,7.0,0,0.00,,,0.00,Weather View 32 v70,2013-07-03 11:21:00,
2013-07-03 04:25:00,68.0,0.0,29.88,West,263,2.0,7.0,0,0.00,,,0.00,Weather View 32 v70,2013-07-03 11:25:00,
2013-07-03 04:30:00,68.1,0.0,29.88,WSW,245,1.0,7.0,0,0.00,,,0.00,Weather View 32 v70,2013-07-03 11:30:00,
2013-07-03 04:35:00,68.0,0.0,29.88,SW,228,0.0,7.0,0,0.00,,,0.00,Weather View 32 v70,2013-07-03 11:35:00,
2013-07-03 04:40:00,67.9,0.0,29.88,SW,228,0.0,7.0,0,0.00,,,0.00,Weather View 32 v70,2013-07-03 11:40:00,
2013-07-03 04:45:00,67.7,0.0,29.88,WSW,249,3.0,7.0,0,0.00,,,0.00,Weather View 32 v70,2013-07-03 11:45:00,
2013-07-03 04:50:00,67.9,0.0,29.88,WSW,253,1.0,5.0,0,0.00,,,0.00,Weather View 32 v70,2013-07-03 11:50:00,
2013-07-03 04:55:00,67.8,0.0,29.88,SW,226,0.0,5.0,0,0.00,,,0.00,Weather View 32 v70,2013-07-03 11:55:00,
2013-07-03 04:59:00,67.7,0.0,29.88,SSW,208,1.0,5.0,0,0.00,,,0.00,Weather View 32 v70,2013-07-03 11:59:00,
2013-07-03 05:02:00,67.7,0.0,29.88,SW,225,0.0,5.0,0,0.00,,,0.00,Weather View 32 v70,2013-07-03 12:02:00,
2013-07-03 05:07:00,67.4,0.0,29.87,SW,232,1.0,5.0,0,0.00,,,0.00,Weather View 32 v70,2013-07-03 12:07:00,
2013-07-03 05:12:00,67.4,0.0,29.88,SSW,198,3.0,5.0,0,0.00,,,0.00,Weather View 32 v70,2013-07-03 12:12:00,
2013-07-03 05:16:00,67.3,0.0,29.88,WSW,248,2.0,5.0,0,0.00,,,0.00,Weather View 32 v70,2013-07-03 12:16:00,
2013-07-03 05:20:00,67.6,0.0,29.88,WSW,256,3.0,5.0,0,0.00,,,0.00,Weather View 32 v70,2013-07-03 12:20:00,
2013-07-03 05:25:00,67.1,0.0,29.88,SW,235,0.0,5.0,0,0.00,,,0.00,Weather View 32 v70,2013-07-03 12:25:00,
2013-07-03 05:30:00,66.6,0.0,29.88,SSW,207,0.0,5.0,0,0.00,,,0.00,Weather View 32 v70,2013-07-03 12:30:00,
2013-07-03 05:35:00,66.8,0.0,29.88,WNW,283,2.0,5.0,0,0.00,,,0.00,Weather View 32 v70,2013-07-03 12:35:00,
2013-07-03 05:40:00,67.3,0.0,29.88,WSW,238,0.0,5.0,0,0.00,,,0.00,Weather View 32 v70,2013-07-03 12:40:00,
2013-07-03 05:46:00,67.1,0.0,29.88,West,262,0.0,5.0,0,0.00,,,0.00,Weather View 32 v70,2013-07-03 12:46:00,
2013-07-03 05:47:00,66.9,0.0,29.89,West,262,0.0,5.0,0,0.00,,,0.00,Weather View 32 v70,2013-07-03 12:47:00,
2013-07-03 05:52:00,66.9,0.0,29.89,West,273,0.0,5.0,0,0.00,,,0.00,Weather View 32 v70,2013-07-03 12:52:00,
2013-07-03 05:57:00,67.0,0.0,29.88,WSW,250,0.0,5.0,0,0.00,,,0.00,Weather View 32 v70,2013-07-03 12:57:00,
2013-07-03 06:02:00,66.9,0.0,29.89,WSW,249,2.0,5.0,0,0.00,,,0.00,Weather View 32 v70,2013-07-03 13:02:00,
2013-07-03 06:08:00,66.8,0.0,29.89,WSW,248,0.0,5.0,0,0.00,,,0.00,Weather View 32 v70,2013-07-03 13:08:00,
2013-07-03 06:13:00,66.9,0.0,29.89,WSW,248,0.0,5.0,0,0.00,,,0.00,Weather View 32 v70,2013-07-03 13:13:00,
2013-07-03 06:19:00,66.9,0.0,29.89,WSW,248,0.0,5.0,0,0.00,,,0.00,Weather View 32 v70,2013-07-03 13:19:00,
2013-07-03 06:25:00,67.1,0.0,29.89,SW,232,0.0,5.0,0,0.00,,,0.00,Weather View 32 v70,2013-07-03 13:25:00,
2013-07-03 06:30:00,67.3,0.0,29.89,West,264,2.0,4.0,0,0.00,,,0.00,Weather View 32 v70,2013-07-03 13:30:00,
2013-07-03 06:35:00,67.5,0.0,29.89,SW,235,1.0,4.0,0,0.00,,,0.00,Weather View 32 v70,2013-07-03 13:35:00,
2013-07-03 06:37:00,67.7,0.0,29.89,West,271,1.0,4.0,0,0.00,,,0.00,Weather View 32 v70,2013-07-03 13:37:00,
2013-07-03 06:42:00,67.7,0.0,29.89,WSW,255,0.0,4.0,0,0.00,,,0.00,Weather View 32 v70,2013-07-03 13:42:00,
2013-07-03 06:47:00,67.9,0.0,29.89,West,263,0.0,4.0,0,0.00,,,0.00,Weather View 32 v70,2013-07-03 13:47:00,
2013-07-03 06:52:00,67.9,0.0,29.89,SW,225,0.0,4.0,0,0.00,,,0.00,Weather View 32 v70,2013-07-03 13:52:00,
2013-07-03 06:57:00,68.3,0.0,29.89,West,270,2.0,4.0,0,0.00,,,0.00,Weather View 32 v70,2013-07-03 13:57:00,
2013-07-03 07:03:00,68.6,0.0,29.89,West,267,2.0,4.0,0,0.00,,,0.00,Weather View 32 v70,2013-07-03 14:03:00,
2013-07-03 07:06:00,68.8,0.0,29.89,West,262,0.0,4.0,0,0.00,,,0.00,Weather View 32 v70,2013-07-03 14:06:00,
2013-07-03 07:09:00,69.0,0.0,29.89,West,278,0.0,4.0,0,0.00,,,0.00,Weather View 32 v70,2013-07-03 14:09:00,
2013-07-03 07:14:00,69.2,0.0,29.89,West,271,0.0,4.0,0,0.00,,,0.00,Weather View 32 v70,2013-07-03 14:14:00,
2013-07-03 07:18:00,69.6,0.0,29.89,SW,236,0.0,4.0,0,0.00,,,0.00,Weather View 32 v70,2013-07-03 14:18:00,
2013-07-03 07:23:00,70.1,0.0,29.88,SW,232,3.0,4.0,0,0.00,,,0.00,Weather View 32 v70,2013-07-03 14:23:00,
2013-07-03 07:28:00,70.5,0.0,29.88,WSW,248,0.0,5.0,0,0.00,,,0.00,Weather View 32 v70,2013-07-03 14:28:00,
2013-07-03 07:30:00,70.7,0.0,29.88,West,260,0.0,5.0,0,0.00,,,0.00,Weather View 32 v70,2013-07-03 14:30:00,
2013-07-03 07:35:00,71.3,0.0,29.88,West,260,0.0,5.0,0,0.00,,,0.00,Weather View 32 v70,2013-07-03 14:35:00,
2013-07-03 07:38:00,71.5,0.0,29.88,SSW,207,0.0,5.0,0,0.00,,,0.00,Weather View 32 v70,2013-07-03 14:38:00,
2013-07-03 07:41:00,72.0,0.0,29.88,South,184,0.0,5.0,0,0.00,,,0.00,Weather View 32 v70,2013-07-03 14:41:00,
2013-07-03 07:46:00,72.5,0.0,29.88,SW,235,3.0,5.0,0,0.00,,,0.00,Weather View 32 v70,2013-07-03 14:46:00,
2013-07-03 07:51:00,72.7,0.0,29.88,SW,219,0.0,5.0,0,0.00,,,0.00,Weather View 32 v70,2013-07-03 14:51:00,
2013-07-03 07:56:00,73.0,0.0,29.88,SW,226,1.0,5.0,0,0.00,,,0.00,Weather View 32 v70,2013-07-03 14:56:00,
2013-07-03 07:59:00,73.3,0.0,29.88,South,174,2.0,5.0,0,0.00,,,0.00,Weather View 32 v70,2013-07-03 14:59:00,
2013-07-03 08:04:00,73.9,0.0,29.88,SW,228,1.0,5.0,0,0.00,,,0.00,Weather View 32 v70,2013-07-03 15:04:00,
2013-07-03 08:05:00,74.0,0.0,29.88,WSW,243,1.0,5.0,0,0.00,,,0.00,Weather View 32 v70,2013-07-03 15:05:00,
2013-07-03 08:10:00,74.3,0.0,29.88,SW,231,3.0,7.0,0,0.00,,,0.00,Weather View 32 v70,2013-07-03 15:10:00,
2013-07-03 08:15:00,74.2,0.0,29.88,WSW,238,3.0,7.0,0,0.00,,,0.00,Weather View 32 v70,2013-07-03 15:15:00,
2013-07-03 08:20:00,74.3,0.0,29.88,WSW,246,2.0,7.0,0,0.00,,,0.00,Weather View 32 v70,2013-07-03 15:20:00,
2013-07-03 08:25:00,74.9,0.0,29.88,South,176,3.0,7.0,0,0.00,,,0.00,Weather View 32 v70,2013-07-03 15:25:00,
2013-07-03 08:28:00,75.1,0.0,29.88,South,181,2.0,7.0,0,0.00,,,0.00,Weather View 32 v70,2013-07-03 15:28:00,
2013-07-03 08:33:00,76.0,0.0,29.88,SSW,197,3.0,7.0,0,0.00,,,0.00,Weather View 32 v70,2013-07-03 15:33:00,
2013-07-03 08:38:00,76.0,0.0,29.88,South,180,3.0,7.0,0,0.00,,,0.00,Weather View 32 v70,2013-07-03 15:38:00,
2013-07-03 08:42:00,76.7,0.0,29.88,South,176,5.0,7.0,0,0.00,,,0.00,Weather View 32 v70,2013-07-03 15:42:00,
2013-07-03 08:47:00,77.0,0.0,29.88,SSE,165,6.0,7.0,0,0.00,,,0.00,Weather View 32 v70,2013-07-03 15:47:00,
2013-07-03 08:52:00,77.2,0.0,29.88,South,183,2.0,7.0,0,0.00,,,0.00,Weather View 32 v70,2013-07-03 15:52:00,
2013-07-03 08:54:00,77.3,0.0,29.88,SSW,203,2.0,7.0,0,0.00,,,0.00,Weather View 32 v70,2013-07-03 15:54:00,
2013-07-03 08:59:00,77.8,0.0,29.88,WSW,253,0.0,7.0,0,0.00,,,0.00,Weather View 32 v70,2013-07-03 15:59:00,
2013-07-03 09:04:00,78.3,0.0,29.88,SW,236,4.0,7.0,0,0.00,,,0.00,Weather View 32 v70,2013-07-03 16:04:00,
2013-07-03 09:09:00,78.8,0.0,29.88,SSE,153,4.0,7.0,0,0.00,,,0.00,Weather View 32 v70,2013-07-03 16:09:00,
2013-07-03 09:14:00,79.1,0.0,29.88,SSW,208,2.0,7.0,0,0.00,,,0.00,Weather View 32 v70,2013-07-03 16:14:00,
2013-07-03 09:19:00,79.7,0.0,29.88,West,259,1.0,7.0,0,0.00,,,0.00,Weather View 32 v70,2013-07-03 16:19:00,
2013-07-03 09:25:00,80.3,0.0,29.88,West,270,1.0,7.0,0,0.00,,,0.00,Weather View 32 v70,2013-07-03 16:25:00,
2013-07-03 09:30:00,80.5,0.0,29.88,SW,214,1.0,7.0,0,0.00,,,0.00,Weather View 32 v70,2013-07-03 16:30:00,
2013-07-03 09:35:00,81.5,0.0,29.88,SSW,207,2.0,7.0,0,0.00,,,0.00,Weather View 32 v70,2013-07-03 16:35:00,
2013-07-03 09:40:00,81.6,0.0,29.87,SE,138,4.0,7.0,0,0.00,,,0.00,Weather View 32 v70,2013-07-03 16:40:00,
2013-07-03 09:45:00,82.4,0.0,29.88,WSW,245,2.0,7.0,0,0.00,,,0.00,Weather View 32 v70,2013-07-03 16:45:00,
2013-07-03 09:50:00,82.6,0.0,29.87,South,188,3.0,7.0,0,0.00,,,0.00,Weather View 32 v70,2013-07-03 16:50:00,
2013-07-03 09:55:00,83.5,0.0,29.87,SSE,160,4.0,8.0,0,0.00,,,0.00,Weather View 32 v70,2013-07-03 16:55:00,
2013-07-03 10:00:00,83.4,0.0,29.87,South,173,4.0,8.0,0,0.00,,,0.00,Weather View 32 v70,2013-07-03 17:00:00,
2013-07-03 10:05:00,83.7,0.0,29.87,SSE,148,3.0,8.0,0,0.00,,,0.00,Weather View 32 v70,2013-07-03 17:05:00,
2013-07-03 10:10:00,84.8,0.0,29.86,SSE,156,4.0,8.0,0,0.00,,,0.00,Weather View 32 v70,2013-07-03 17:10:00,
2013-07-03 10:15:00,85.4,0.0,29.86,South,191,3.0,8.0,0,0.00,,,0.00,Weather View 32 v70,2013-07-03 17:15:00,
2013-07-03 10:20:00,85.6,0.0,29.86,SSE,165,3.0,8.0,0,0.00,,,0.00,Weather View 32 v70,2013-07-03 17:20:00,
2013-07-03 10:25:00,86.4,0.0,29.86,SE,141,4.0,8.0,0,0.00,,,0.00,Weather View 32 v70,2013-07-03 17:25:00,
2013-07-03 10:30:00,87.1,0.0,29.86,SSE,152,1.0,8.0,0,0.00,,,0.00,Weather View 32 v70,2013-07-03 17:30:00,
2013-07-03 10:35:00,88.1,0.0,29.86,South,172,3.0,8.0,0,0.00,,,0.00,Weather View 32 v70,2013-07-03 17:35:00,
2013-07-03 10:40:00,87.7,0.0,29.86,SSW,200,5.0,8.0,0,0.00,,,0.00,Weather View 32 v70,2013-07-03 17:40:00,
2013-07-03 10:45:00,88.3,0.0,29.86,SSE,159,6.0,9.0,0,0.00,,,0.00,Weather View 32 v70,2013-07-03 17:45:00,
2013-07-03 10:50:00,88.6,0.0,29.86,WSW,238,5.0,9.0,0,0.00,,,0.00,Weather View 32 v70,2013-07-03 17:50:00,
2013-07-03 10:55:00,89.0,0.0,29.86,SE,134,1.0,9.0,0,0.00,,,0.00,Weather View 32 v70,2013-07-03 17:55:00,
2013-07-03 11:01:00,89.1,0.0,29.86,WSW,255,3.0,10.0,0,0.00,,,0.00,Weather View 32 v70,2013-07-03 18:01:00,
2013-07-03 11:06:00,89.4,0.0,29.86,SW,235,3.0,10.0,0,0.00,,,0.00,Weather View 32 v70,2013-07-03 18:06:00,
2013-07-03 11:11:00,90.1,0.0,29.86,SW,218,6.0,10.0,0,0.00,,,0.00,Weather View 32 v70,2013-07-03 18:11:00,
2013-07-03 11:16:00,89.7,0.0,29.85,SSE,163,6.0,10.0,0,0.00,,,0.00,Weather View 32 v70,2013-07-03 18:16:00,
2013-07-03 11:21:00,90.4,0.0,29.85,South,169,4.0,10.0,0,0.00,,,0.00,Weather View 32 v70,2013-07-03 18:21:00,
2013-07-03 11:26:00,91.2,0.0,29.85,SW,219,4.0,10.0,0,0.00,,,0.00,Weather View 32 v70,2013-07-03 18:26:00,
2013-07-03 11:32:00,90.9,0.0,29.85,SSW,200,6.0,10.0,0,0.00,,,0.00,Weather View 32 v70,2013-07-03 18:32:00,
2013-07-03 11:37:00,91.3,0.0,29.85,SSE,167,3.0,10.0,0,0.00,,,0.00,Weather View 32 v70,2013-07-03 18:37:00,
2013-07-03 11:42:00,92.0,0.0,29.85,SSW,198,4.0,10.0,0,0.00,,,0.00,Weather View 32 v70,2013-07-03 18:42:00,
2013-07-03 11:47:00,92.1,0.0,29.85,South,180,6.0,10.0,0,0.00,,,0.00,Weather View 32 v70,2013-07-03 18:47:00,
2013-07-03 11:52:00,93.0,0.0,29.84,SW,231,6.0,10.0,0,0.00,,,0.00,Weather View 32 v70,2013-07-03 18:52:00,
2013-07-03 11:57:00,93.7,0.0,29.84,SSW,194,4.0,10.0,0,0.00,,,0.00,Weather View 32 v70,2013-07-03 18:57:00,
2013-07-03 12:02:00,93.9,0.0,29.84,SSW,203,7.0,10.0,0,0.00,,,0.00,Weather View 32 v70,2013-07-03 19:02:00,
2013-07-03 12:07:00,94.2,0.0,29.84,South,179,4.0,10.0,0,0.00,,,0.00,Weather View 32 v70,2013-07-03 19:07:00,
2013-07-03 12:12:00,94.7,0.0,29.84,SW,233,3.0,10.0,0,0.00,,,0.00,Weather View 32 v70,2013-07-03 19:12:00,
2013-07-03 12:18:00,95.2,0.0,29.84,South,188,7.0,10.0,0,0.00,,,0.00,Weather View 32 v70,2013-07-03 19:18:00,
2013-07-03 12:23:00,95.0,0.0,29.84,SE,124,3.0,10.0,0,0.00,,,0.00,Weather View 32 v70,2013-07-03 19:23:00,
2013-07-03 12:28:00,96.1,0.0,29.83,SSW,212,2.0,10.0,0,0.00,,,0.00,Weather View 32 v70,2013-07-03 19:28:00,
2013-07-03 12:33:00,96.0,0.0,29.83,SE,124,5.0,10.0,0,0.00,,,0.00,Weather View 32 v70,2013-07-03 19:33:00,
2013-07-03 12:38:00,96.7,0.0,29.83,SSE,163,9.0,12.0,0,0.00,,,0.00,Weather View 32 v70,2013-07-03 19:38:00,
2013-07-03 12:43:00,96.2,0.0,29.83,South,191,5.0,12.0,0,0.00,,,0.00,Weather View 32 v70,2013-07-03 19:43:00,
2013-07-03 12:48:00,96.5,0.0,29.83,SSE,160,9.0,12.0,0,0.00,,,0.00,Weather View 32 v70,2013-07-03 19:48:00,
2013-07-03 12:53:00,97.2,0.0,29.82,SE,139,6.0,12.0,0,0.00,,,0.00,Weather View 32 v70,2013-07-03 19:53:00,
2013-07-03 12:58:00,96.9,0.0,29.82,SW,217,4.0,12.0,0,0.00,,,0.00,Weather View 32 v70,2013-07-03 19:58:00,
2013-07-03 13:05:00,97.0,0.0,29.82,SSE,159,6.0,12.0,0,0.00,,,0.00,Weather View 32 v70,2013-07-03 20:05:00,
2013-07-03 13:10:00,98.0,0.0,29.82,SSW,204,5.0,12.0,0,0.00,,,0.00,Weather View 32 v70,2013-07-03 20:10:00,
2013-07-03 13:16:00,98.3,0.0,29.81,South,176,6.0,12.0,0,0.00,,,0.00,Weather View 32 v70,2013-07-03 20:16:00,
2013-07-03 13:21:00,98.8,0.0,29.81,SE,141,3.0,12.0,0,0.00,,,0.00,Weather View 32 v70,2013-07-03 20:21:00,
2013-07-03 13:26:00,98.8,0.0,29.81,South,173,8.0,12.0,0,0.00,,,0.00,Weather View 32 v70,2013-07-03 20:26:00,
2013-07-03 13:32:00,99.2,0.0,29.81,South,184,3.0,12.0,0,0.00,,,0.00,Weather View 32 v70,2013-07-03 20:32:00,
2013-07-03 13:37:00,99.3,0.0,29.80,South,190,6.0,12.0,0,0.00,,,0.00,Weather View 32 v70,2013-07-03 20:37:00,
2013-07-03 13:50:00,99.4,0.0,29.80,SSE,149,7.0,12.0,0,0.00,,,0.00,Weather View 32 v70,2013-07-03 20:50:00,
2013-07-03 13:59:00,100.0,0.0,29.80,SW,235,5.0,13.0,0,0.00,,,0.00,Weather View 32 v70,2013-07-03 20:59:00,
2013-07-03 14:07:00,99.8,0.0,29.80,South,190,5.0,13.0,0,0.00,,,0.00,Weather View 32 v70,2013-07-03 21:07:00,
2013-07-03 14:13:00,100.2,0.0,29.80,SSE,167,6.0,14.0,0,0.00,,,0.00,Weather View 32 v70,2013-07-03 21:13:00,
2013-07-03 14:18:00,99.9,0.0,29.79,SW,229,8.0,14.0,0,0.00,,,0.00,Weather View 32 v70,2013-07-03 21:18:00,
2013-07-03 14:23:00,101.1,0.0,29.78,West,269,6.0,14.0,0,0.00,,,0.00,Weather View 32 v70,2013-07-03 21:23:00,
2013-07-03 14:28:00,100.4,0.0,29.78,SW,219,5.0,14.0,0,0.00,,,0.00,Weather View 32 v70,2013-07-03 21:28:00,
2013-07-03 14:33:00,101.4,0.0,29.78,West,269,3.0,14.0,0,0.00,,,0.00,Weather View 32 v70,2013-07-03 21:33:00,
2013-07-03 14:38:00,101.4,0.0,29.77,SW,236,5.0,14.0,0,0.00,,,0.00,Weather View 32 v70,2013-07-03 21:38:00,
2013-07-03 14:43:00,101.4,0.0,29.77,WSW,239,8.0,14.0,0,0.00,,,0.00,Weather View 32 v70,2013-07-03 21:43:00,
2013-07-03 14:48:00,101.2,0.0,29.77,West,278,6.0,14.0,0,0.00,,,0.00,Weather View 32 v70,2013-07-03 21:48:00,
2013-07-03 14:53:00,100.9,0.0,29.77,West,267,7.0,14.0,0,0.00,,,0.00,Weather View 32 v70,2013-07-03 21:53:00,
2013-07-03 14:58:00,101.2,0.0,29.77,WSW,252,6.0,14.0,0,0.00,,,0.00,Weather View 32 v70,2013-07-03 21:58:00,
2013-07-03 15:03:00,100.3,0.0,29.77,WSW,238,12.0,17.0,0,0.00,,,0.00,Weather View 32 v70,2013-07-03 22:03:00,
2013-07-03 15:08:00,101.2,0.0,29.77,South,181,4.0,17.0,0,0.00,,,0.00,Weather View 32 v70,2013-07-03 22:08:00,
2013-07-03 15:14:00,100.1,0.0,29.77,SW,229,9.0,18.0,0,0.00,,,0.00,Weather View 32 v70,2013-07-03 22:14:00,
2013-07-03 15:19:00,99.5,0.0,29.77,NW,308,4.0,20.0,0,0.00,,,0.00,Weather View 32 v70,2013-07-03 22:19:00,
2013-07-03 15:24:00,100.4,0.0,29.77,WSW,239,6.0,20.0,0,0.00,,,0.00,Weather View 32 v70,2013-07-03 22:24:00,
2013-07-03 15:29:00,100.8,0.0,29.76,SW,233,9.0,20.0,0,0.00,,,0.00,Weather View 32 v70,2013-07-03 22:29:00,
2013-07-03 15:34:00,99.8,0.0,29.76,SSW,210,7.0,20.0,0,0.00,,,0.00,Weather View 32 v70,2013-07-03 22:34:00,
2013-07-03 15:39:00,99.2,0.0,29.76,SW,214,10.0,20.0,0,0.00,,,0.00,Weather View 32 v70,2013-07-03 22:39:00,
2013-07-03 15:44:00,99.1,0.0,29.76,SSW,207,11.0,20.0,0,0.00,,,0.00,Weather View 32 v70,2013-07-03 22:44:00,
2013-07-03 15:49:00,100.4,0.0,29.76,WSW,239,8.0,20.0,0,0.00,,,0.00,Weather View 32 v70,2013-07-03 22:49:00,
2013-07-03 15:55:00,101.1,0.0,29.75,NNE,28,4.0,20.0,0,0.00,,,0.00,Weather View 32 v70,2013-07-03 22:55:00,
2013-07-03 16:00:00,101.4,0.0,29.75,SW,228,5.0,20.0,0,0.00,,,0.00,Weather View 32 v70,2013-07-03 23:00:00,
2013-07-03 16:05:00,101.4,0.0,29.75,SW,229,8.0,20.0,0,0.00,,,0.00,Weather View 32 v70,2013-07-03 23:05:00,
2013-07-03 16:10:00,101.5,0.0,29.74,SW,218,10.0,20.0,0,0.00,,,0.00,Weather View 32 v70,2013-07-03 23:10:00,
2013-07-03 16:15:00,101.4,0.0,29.74,SW,231,8.0,18.0,0,0.00,,,0.00,Weather View 32 v70,2013-07-03 23:15:00,
2013-07-03 16:20:00,101.4,0.0,29.74,WNW,302,5.0,18.0,0,0.00,,,0.00,Weather View 32 v70,2013-07-03 23:20:00,
2013-07-03 16:25:00,101.3,0.0,29.73,SW,222,10.0,18.0,0,0.00,,,0.00,Weather View 32 v70,2013-07-03 23:25:00,
2013-07-03 16:31:00,101.3,0.0,29.73,WSW,246,6.0,18.0,0,0.00,,,0.00,Weather View 32 v70,2013-07-03 23:31:00,
2013-07-03 16:36:00,101.1,0.0,29.73,WSW,242,6.0,18.0,0,0.00,,,0.00,Weather View 32 v70,2013-07-03 23:36:00,
2013-07-03 16:42:00,101.4,0.0,29.73,West,259,9.0,18.0,0,0.00,,,0.00,Weather View 32 v70,2013-07-03 23:42:00,
2013-07-03 16:47:00,101.3,0.0,29.73,WSW,243,5.0,18.0,0,0.00,,,0.00,Weather View 32 v70,2013-07-03 23:47:00,
2013-07-03 16:52:00,101.3,0.0,29.72,WSW,256,6.0,18.0,0,0.00,,,0.00,Weather View 32 v70,2013-07-03 23:52:00,
2013-07-03 16:57:00,101.5,0.0,29.72,West,264,5.0,18.0,0,0.00,,,0.00,Weather View 32 v70,2013-07-03 23:57:00,
2013-07-03 17:02:00,100.4,0.0,29.72,SW,236,4.0,17.0,0,0.00,,,0.00,Weather View 32 v70,2013-07-04 00:02:00,
2013-07-03 17:07:00,99.8,0.0,29.72,WSW,242,8.0,17.0,0,0.00,,,0.00,Weather View 32 v70,2013-07-04 00:07:00,
2013-07-03 17:12:00,99.1,0.0,29.72,SW,214,9.0,17.0,0,0.00,,,0.00,Weather View 32 v70,2013-07-04 00:12:00,
2013-07-03 17:17:00,99.2,0.0,29.72,SW,224,8.0,17.0,0,0.00,,,0.00,Weather View 32 v70,2013-07-04 00:17:00,
2013-07-03 17:22:00,98.8,0.0,29.72,SSW,208,7.0,17.0,0,0.00,,,0.00,Weather View 32 v70,2013-07-04 00:22:00,
2013-07-03 17:28:00,97.9,0.0,29.72,West,278,6.0,17.0,0,0.00,,,0.00,Weather View 32 v70,2013-07-04 00:28:00,
2013-07-03 17:33:00,97.2,0.0,29.72,SSW,210,11.0,17.0,0,0.00,,,0.00,Weather View 32 v70,2013-07-04 00:33:00,
2013-07-03 17:38:00,96.9,0.0,29.72,SW,231,8.0,17.0,0,0.00,,,0.00,Weather View 32 v70,2013-07-04 00:38:00,
2013-07-03 17:44:00,97.0,0.0,29.72,SSE,148,5.0,18.0,0,0.00,,,0.00,Weather View 32 v70,2013-07-04 00:44:00,
2013-07-03 17:50:00,96.9,0.0,29.72,WSW,243,3.0,18.0,0,0.00,,,0.00,Weather View 32 v70,2013-07-04 00:50:00,
2013-07-03 17:55:00,96.9,0.0,29.72,SW,215,6.0,18.0,0,0.00,,,0.00,Weather View 32 v70,2013-07-04 00:55:00,
2013-07-03 18:00:00,97.1,0.0,29.72,SW,226,8.0,18.0,0,0.00,,,0.00,Weather View 32 v70,2013-07-04 01:00:00,
2013-07-03 18:05:00,97.2,0.0,29.72,NW,307,3.0,18.0,0,0.00,,,0.00,Weather View 32 v70,2013-07-04 01:05:00,
2013-07-03 18:10:00,97.8,0.0,29.72,WNW,285,6.0,18.0,0,0.00,,,0.00,Weather View 32 v70,2013-07-04 01:10:00,
2013-07-03 18:16:00,97.2,0.0,29.72,West,260,7.0,18.0,0,0.00,,,0.00,Weather View 32 v70,2013-07-04 01:16:00,
2013-07-03 18:21:00,97.0,0.0,29.72,West,274,7.0,18.0,0,0.00,,,0.00,Weather View 32 v70,2013-07-04 01:21:00,
2013-07-03 18:26:00,96.0,0.0,29.73,WSW,257,8.0,18.0,0,0.00,,,0.00,Weather View 32 v70,2013-07-04 01:26:00,
2013-07-03 18:31:00,95.9,0.0,29.72,West,266,8.0,18.0,0,0.00,,,0.00,Weather View 32 v70,2013-07-04 01:31:00,
2013-07-03 18:37:00,95.2,0.0,29.72,SW,225,18.0,20.0,0,0.00,,,0.00,Weather View 32 v70,2013-07-04 01:37:00,
2013-07-03 18:42:00,95.1,0.0,29.72,SW,228,5.0,20.0,0,0.00,,,0.00,Weather View 32 v70,2013-07-04 01:42:00,
2013-07-03 18:47:00,94.9,0.0,29.72,WSW,239,5.0,20.0,0,0.00,,,0.00,Weather View 32 v70,2013-07-04 01:47:00,
2013-07-03 18:52:00,94.7,0.0,29.72,WSW,243,7.0,20.0,0,0.00,,,0.00,Weather View 32 v70,2013-07-04 01:52:00,
2013-07-03 18:57:00,94.8,0.0,29.72,WNW,284,9.0,20.0,0,0.00,,,0.00,Weather View 32 v70,2013-07-04 01:57:00,
2013-07-03 19:02:00,94.5,0.0,29.73,West,259,8.0,20.0,0,0.00,,,0.00,Weather View 32 v70,2013-07-04 02:02:00,
2013-07-03 19:07:00,94.5,0.0,29.72,WSW,238,6.0,20.0,0,0.00,,,0.00,Weather View 32 v70,2013-07-04 02:07:00,
2013-07-03 19:13:00,94.0,0.0,29.73,WNW,300,5.0,20.0,0,0.00,,,0.00,Weather View 32 v70,2013-07-04 02:13:00,
2013-07-03 19:18:00,93.7,0.0,29.73,WNW,290,9.0,20.0,0,0.00,,,0.00,Weather View 32 v70,2013-07-04 02:18:00,
2013-07-03 19:24:00,93.9,0.0,29.73,West,267,4.0,20.0,0,0.00,,,0.00,Weather View 32 v70,2013-07-04 02:24:00,
2013-07-03 19:29:00,93.1,0.0,29.73,West,269,9.0,20.0,0,0.00,,,0.00,Weather View 32 v70,2013-07-04 02:29:00,
2013-07-03 19:35:00,92.4,0.0,29.73,West,280,7.0,19.0,0,0.00,,,0.00,Weather View 32 v70,2013-07-04 02:35:00,
2013-07-03 19:40:00,92.0,0.0,29.73,WNW,283,3.0,16.0,0,0.00,,,0.00,Weather View 32 v70,2013-07-04 02:40:00,
2013-07-03 19:45:00,91.3,0.0,29.73,WNW,288,3.0,16.0,0,0.00,,,0.00,Weather View 32 v70,2013-07-04 02:45:00,
2013-07-03 19:50:00,91.1,0.0,29.73,West,281,5.0,16.0,0,0.00,,,0.00,Weather View 32 v70,2013-07-04 02:50:00,
2013-07-03 19:55:00,90.6,0.0,29.73,WSW,238,6.0,16.0,0,0.00,,,0.00,Weather View 32 v70,2013-07-04 02:55:00,
2013-07-03 20:00:00,90.1,0.0,29.73,SSW,208,6.0,12.0,0,0.00,,,0.00,Weather View 32 v70,2013-07-04 03:00:00,
2013-07-03 20:05:00,89.4,0.0,29.73,SW,231,9.0,12.0,0,0.00,,,0.00,Weather View 32 v70,2013-07-04 03:05:00,
2013-07-03 20:11:00,88.1,0.0,29.73,SW,219,3.0,13.0,0,0.00,,,0.00,Weather View 32 v70,2013-07-04 03:11:00,
2013-07-03 20:16:00,86.0,0.0,29.73,SSW,193,1.0,13.0,0,0.00,,,0.00,Weather View 32 v70,2013-07-04 03:16:00,
2013-07-03 20:21:00,85.0,0.0,29.73,WSW,246,3.0,13.0,0,0.00,,,0.00,Weather View 32 v70,2013-07-04 03:21:00,
2013-07-03 20:26:00,84.1,0.0,29.73,WSW,242,7.0,13.0,0,0.00,,,0.00,Weather View 32 v70,2013-07-04 03:26:00,
2013-07-03 20:31:00,84.1,0.0,29.73,WSW,240,5.0,13.0,0,0.00,,,0.00,Weather View 32 v70,2013-07-04 03:31:00,
2013-07-03 20:36:00,83.9,0.0,29.73,WSW,246,6.0,13.0,0,0.00,,,0.00,Weather View 32 v70,2013-07-04 03:36:00,
2013-07-03 20:41:00,84.2,0.0,29.74,West,276,5.0,13.0,0,0.00,,,0.00,Weather View 32 v70,2013-07-04 03:41:00,
2013-07-03 20:47:00,83.2,0.0,29.73,WNW,300,6.0,13.0,0,0.00,,,0.00,Weather View 32 v70,2013-07-04 03:47:00,
2013-07-03 20:52:00,82.4,0.0,29.73,WSW,240,4.0,13.0,0,0.00,,,0.00,Weather View 32 v70,2013-07-04 03:52:00,
2013-07-03 20:57:00,83.1,0.0,29.73,WNW,288,4.0,13.0,0,0.00,,,0.00,Weather View 32 v70,2013-07-04 03:57:00,
2013-07-03 21:01:00,82.4,0.0,29.73,SW,228,3.0,13.0,0,0.00,,,0.00,Weather View 32 v70,2013-07-04 04:01:00,
2013-07-03 21:02:00,82.4,0.0,29.73,SW,221,2.0,13.0,0,0.00,,,0.00,Weather View 32 v70,2013-07-04 04:02:00,
2013-07-03 21:07:00,82.3,0.0,29.73,SSW,197,3.0,13.0,0,0.00,,,0.00,Weather View 32 v70,2013-07-04 04:07:00,
2013-07-03 21:12:00,81.6,0.0,29.73,West,274,2.0,13.0,0,0.00,,,0.00,Weather View 32 v70,2013-07-04 04:12:00,
2013-07-03 21:17:00,81.0,0.0,29.73,WSW,246,6.0,13.0,0,0.00,,,0.00,Weather View 32 v70,2013-07-04 04:17:00,
2013-07-03 21:22:00,80.8,0.0,29.74,WSW,248,6.0,13.0,0,0.00,,,0.00,Weather View 32 v70,2013-07-04 04:22:00,
2013-07-03 21:27:00,80.4,0.0,29.73,NW,309,3.0,10.0,0,0.00,,,0.00,Weather View 32 v70,2013-07-04 04:27:00,
2013-07-03 21:32:00,80.7,0.0,29.74,West,266,4.0,10.0,0,0.00,,,0.00,Weather View 32 v70,2013-07-04 04:32:00,
2013-07-03 21:37:00,80.5,0.0,29.74,West,274,2.0,10.0,0,0.00,,,0.00,Weather View 32 v70,2013-07-04 04:37:00,
2013-07-03 21:42:00,80.1,0.0,29.74,WSW,242,3.0,10.0,0,0.00,,,0.00,Weather View 32 v70,2013-07-04 04:42:00,
2013-07-03 21:47:00,80.1,0.0,29.74,SSW,207,6.0,10.0,0,0.00,,,0.00,Weather View 32 v70,2013-07-04 04:47:00,
2013-07-03 21:52:00,79.9,0.0,29.74,West,263,1.0,10.0,0,0.00,,,0.00,Weather View 32 v70,2013-07-04 04:52:00,
2013-07-03 21:57:00,79.2,0.0,29.75,WNW,294,2.0,10.0,0,0.00,,,0.00,Weather View 32 v70,2013-07-04 04:57:00,
2013-07-03 22:02:00,79.3,0.0,29.75,West,276,3.0,10.0,0,0.00,,,0.00,Weather View 32 v70,2013-07-04 05:02:00,
2013-07-03 22:07:00,79.3,0.0,29.75,SW,225,2.0,9.0,0,0.00,,,0.00,Weather View 32 v70,2013-07-04 05:07:00,
2013-07-03 22:12:00,79.5,0.0,29.75,West,271,5.0,9.0,0,0.00,,,0.00,Weather View 32 v70,2013-07-04 05:12:00,
2013-07-03 22:17:00,79.5,0.0,29.75,SW,236,1.0,9.0,0,0.00,,,0.00,Weather View 32 v70,2013-07-04 05:17:00,
2013-07-03 22:22:00,79.0,0.0,29.75,WNW,294,1.0,9.0,0,0.00,,,0.00,Weather View 32 v70,2013-07-04 05:22:00,
2013-07-03 22:27:00,79.0,0.0,29.75,WSW,239,1.0,9.0,0,0.00,,,0.00,Weather View 32 v70,2013-07-04 05:27:00,
2013-07-03 22:32:00,78.7,0.0,29.75,West,278,2.0,9.0,0,0.00,,,0.00,Weather View 32 v70,2013-07-04 05:32:00,
2013-07-03 22:37:00,78.7,0.0,29.75,West,273,1.0,9.0,0,0.00,,,0.00,Weather View 32 v70,2013-07-04 05:37:00,
2013-07-03 22:42:00,79.0,0.0,29.75,West,267,0.0,9.0,0,0.00,,,0.00,Weather View 32 v70,2013-07-04 05:42:00,
2013-07-03 22:47:00,78.4,0.0,29.75,West,280,3.0,9.0,0,0.00,,,0.00,Weather View 32 v70,2013-07-04 05:47:00,
2013-07-03 22:52:00,78.3,0.0,29.75,West,259,4.0,9.0,0,0.00,,,0.00,Weather View 32 v70,2013-07-04 05:52:00,
2013-07-03 22:57:00,78.1,0.0,29.75,West,264,3.0,8.0,0,0.00,,,0.00,Weather View 32 v70,2013-07-04 05:57:00,
2013-07-03 23:02:00,78.3,0.0,29.75,WSW,252,2.0,8.0,0,0.00,,,0.00,Weather View 32 v70,2013-07-04 06:02:00,
2013-07-03 23:07:00,78.2,0.0,29.75,SSW,210,1.0,8.0,0,0.00,,,0.00,Weather View 32 v70,2013-07-04 06:07:00,
2013-07-03 23:12:00,77.8,0.0,29.75,WSW,240,0.0,7.0,0,0.00,,,0.00,Weather View 32 v70,2013-07-04 06:12:00,
2013-07-03 23:17:00,77.9,0.0,29.75,West,271,2.0,7.0,0,0.00,,,0.00,Weather View 32 v70,2013-07-04 06:17:00,
2013-07-03 23:22:00,77.9,0.0,29.75,WSW,238,3.0,7.0,0,0.00,,,0.00,Weather View 32 v70,2013-07-04 06:22:00,
2013-07-03 23:27:00,77.7,0.0,29.75,SW,236,3.0,8.0,0,0.00,,,0.00,Weather View 32 v70,2013-07-04 06:27:00,
2013-07-03 23:32:00,77.3,0.0,29.75,West,267,3.0,8.0,0,0.00,,,0.00,Weather View 32 v70,2013-07-04 06:32:00,
2013-07-03 23:37:00,77.1,0.0,29.75,WNW,285,6.0,8.0,0,0.00,,,0.00,Weather View 32 v70,2013-07-04 06:37:00,
2013-07-03 23:42:00,76.9,0.0,29.75,WSW,256,3.0,8.0,0,0.00,,,0.00,Weather View 32 v70,2013-07-04 06:42:00,
2013-07-03 23:47:00,77.0,0.0,29.75,WSW,256,3.0,8.0,0,0.00,,,0.00,Weather View 32 v70,2013-07-04 06:47:00,
2013-07-03 23:52:00,76.8,0.0,29.75,West,259,5.0,8.0,0,0.00,,,0.00,Weather View 32 v70,2013-07-04 06:52:00,
2013-07-03 23:57:00,76.0,0.0,29.74,West,280,5.0,8.0,0,0.00,,,0.00,Weather View 32 v70,2013-07-04 06:57:00,